FW7308 Weather Reports


time (UTC)temp
F
wind
direction
speed
knots
gust
knots
rain 1hr
in
rain 24hr
in
rain mn
in
humidity
%
barometer
mb
20260506152117 59 214 4.3 6.1 0.00 0.00 0.00 96 1009.8
20260506151617 58 107 2.6 4.3 0.00 0.00 0.00 96 1009.8
20260506151116 58 148 2.6 4.3 0.00 0.00 0.00 96 1009.8
20260506150619 58 92 3.5 6.1 0.00 0.00 0.00 95 1009.8
20260506150146 58 125 3.5 5.2 0.00 0.00 0.00 94 1010.1
20260506145647 58 170 4.3 6.1 0.00 0.00 0.00 93 1010.1
20260506144646 58 182 3.5 4.3 0.00 0.00 0.00 93 1010.1
20260506144145 58 124 2.6 4.3 0.00 0.00 0.00 93 1010.1
20260506143143 58 231 4.3 6.1 0.00 0.00 0.00 92 1010.1
20260506142645 58 119 3.5 4.3 0.00 0.00 0.00 92 1009.8
20260506142144 58 133 5.2 8.7 0.00 0.00 0.00 92 1009.8
20260506141643 58 58 2.6 4.3 0.00 0.00 0.00 92 1009.8
20260506141142 59 139 6.1 7.0 0.00 0.00 0.00 92 1009.8
20260506140742 59 144 5.2 6.1 0.00 0.00 0.00 93 1009.8
20260506140243 58 186 6.1 7.0 0.00 0.00 0.00 93 1009.8
20260506135641 58 132 5.2 7.0 0.00 0.00 0.00 93 1009.4
20260506135141 58 257 5.2 7.0 0.00 0.00 0.00 93 1009.4
20260506134640 58 127 5.2 8.7 0.00 0.00 0.00 94 1009.6
20260506134141 57 137 5.2 6.1 0.00 0.00 0.00 95 1009.8
20260506133640 57 129 2.6 2.6 0.00 0.00 0.00 96 1009.8
20260506133139 56 32 0.9 1.7 0.00 0.00 0.00 96 1009.8
20260506132638 56 178 4.3 7.0 0.00 0.00 0.00 96 1009.8
20260506132140 56 172 4.3 5.2 0.00 0.00 0.00 96 1009.8
20260506131639 56 266 1.7 1.7 0.00 0.00 0.00 97 1009.8
20260506131138 56 170 6.1 8.7 0.00 0.00 0.00 97 1010.1
20260506130637 56 185 4.3 6.1 0.00 0.00 0.00 97 1010.1
20260506130137 55 158 6.1 6.1 0.00 0.00 0.00 97 1010.1
20260506125638 55 61 2.6 4.3 0.00 0.00 0.00 97 1010.1
20260506125237 55 199 5.2 7.0 0.00 0.00 0.00 97 1010.1
20260506124636 55 167 3.5 5.2 0.00 0.00 0.00 97 1010.1
20260506124135 55 33 3.5 4.3 0.00 0.00 0.00 97 1010.5
20260506123637 55 321 1.7 1.7 0.00 0.00 0.00 97 1010.5
20260506123136 55 155 4.3 7.8 0.00 0.00 0.00 97 1010.1
20260506122635 55 40 1.7 4.3 0.00 0.00 0.00 98 1010.3
20260506122134 55 247 4.3 5.2 0.00 0.00 0.00 97 1010.1
20260506121635 55 193 4.3 6.1 0.00 0.00 0.00 98 1010.1
20260506121134 55 168 5.2 6.1 0.00 0.00 0.00 98 1009.8
20260506120734 55 168 5.2 6.1 0.00 0.00 0.00 98 1009.8
20260506120133 55 82 4.3 6.1 0.00 0.00 0.00 98 1009.8
20260506115634 55 137 3.5 5.2 0.00 0.00 0.00 98 1010.0
20260506115134 55 121 5.2 6.1 0.00 0.00 0.00 98 1009.8
20260506114736 55 220 2.6 4.3 0.00 0.00 0.00 98 1010.1
20260506114232 54 75 3.5 5.2 0.00 0.00 0.00 98 1010.1
20260506113637 54 306 2.6 4.3 0.00 0.00 0.00 98 1010.1
20260506113132 54 61 0.9 1.7 0.00 0.00 0.00 98 1010.1
20260506111736 55 185 6.1 7.0 0.00 0.00 0.00 97 1010.1
20260506111231 55 139 3.5 4.3 0.00 0.00 0.00 97 1010.1
20260506110630 55 267 4.3 6.1 0.00 0.00 0.00 97 1010.5
20260506110129 55 94 4.3 5.2 0.00 0.00 0.00 97 1010.1
20260506105631 55 295 1.7 1.7 0.00 0.00 0.00 97 1010.1
20260506105130 55 295 1.7 1.7 0.00 0.00 0.00 97 1010.1
20260506104629 55 146 3.5 5.2 0.00 0.00 0.00 96 1010.1
20260506104128 54 42 2.6 4.3 0.00 0.00 0.00 96 1010.1
20260506103627 54 344 1.7 2.6 0.00 0.00 0.00 97 1009.8
20260506103128 54 58 3.5 4.3 0.00 0.00 0.00 97 1010.1
20260506102627 54 58 3.5 4.3 0.00 0.00 0.00 97 1009.8
20260506102126 54 80 2.6 4.3 0.00 0.00 0.00 97 1009.8
20260506101631 54 47 2.6 4.3 0.00 0.00 0.00 97 1010.1
20260506101225 0 0.0 0.0 0.00 0.00 0.00 1010.1
20260506100626 0 0.0 0.0 0.00 0.00 0.00 1010.1
20260506100125 0 0.0 0.0 0.00 0.00 0.00 1010.1
20260506095624 0 0.0 0.0 0.00 0.00 0.00 1010.0
20260506095124 0 0.0 0.0 0.00 0.00 0.00 1010.1
20260506094625 0 0.0 0.0 0.00 0.00 0.00 1010.1
20260506094124 0 0.0 0.0 0.00 0.00 0.00 1009.8
20260506093623 0 0.0 0.0 0.00 0.00 0.00 1009.8
20260506093122 0 0.0 0.0 0.00 0.00 0.00 1010.1
20260506092624 0 0.0 0.0 0.00 0.00 0.00 1010.1
20260506092123 0 0.0 0.0 0.00 0.00 0.00 1010.1
20260506091622 0 0.0 0.0 0.00 0.00 0.00 1009.8
20260506091121 0 0.0 0.0 0.00 0.00 0.00 1009.8
20260506090622 0 0.0 0.0 0.00 0.00 0.00 1010.0
20260506090122 0 0.0 0.0 0.00 0.00 0.00 1010.1
20260506085621 0 0.0 0.0 0.00 0.00 0.00 1010.1
20260506085120 0 0.0 0.0 0.00 0.00 0.00 1009.8
20260506084621 0 0.0 0.0 0.00 0.00 0.00 1010.1
20260506084121 0 0.0 0.0 0.00 0.00 0.00 1010.5
20260506083620 0 0.0 0.0 0.00 0.00 0.00 1010.1
20260506083119 0 0.0 0.0 0.00 0.00 0.00 1010.1
20260506082618 0 0.0 0.0 0.00 0.00 0.00 1010.1
20260506082117 0 0.0 0.0 0.00 0.00 0.00 1010.1
20260506081618 0 0.0 0.0 0.00 0.00 0.00 1010.3
20260506081118 0 0.0 0.0 0.00 0.00 0.00 1010.1
20260506080617 0 0.0 0.0 0.00 0.00 0.00 1010.1
20260506080118 0 0.0 0.0 0.00 0.00 0.00 1010.5
20260506073146 0 0.0 0.0 0.00 0.00 0.00 1010.5
20260506072645 0 0.0 0.0 0.00 0.00 0.00 1010.5
20260506072244 0 0.0 0.0 0.00 0.00 0.00 1010.5
20260506071646 0 0.0 0.0 0.00 0.00 0.00 1010.5
20260506071144 0 0.0 0.0 0.00 0.00 0.00 1010.7
20260506070745 0 0.0 0.0 0.00 0.00 0.00 1010.5
20260506070146 0 0.0 0.0 0.00 0.00 0.00 1010.5
20260506062240 0 0.0 0.0 0.00 0.00 0.00 1010.5
20260506061642 0 0.0 0.0 0.00 0.00 0.00 1010.5
20260506061140 0 0.0 0.0 0.00 0.00 0.00 1010.5
20260506060740 0 0.0 0.0 0.00 0.00 0.00 1010.5
20260506060142 0 0.0 0.0 0.00 0.00 0.00 1010.5
20260506051136 0 0.0 0.0 0.00 0.00 0.00 1010.9
20260506050636 0 0.0 0.0 0.00 0.00 0.00 1010.9
20260506050136 60 337 0.9 1.7 0.00 0.00 0.00 82 1010.7
20260506045136 60 70 2.6 4.3 0.00 0.00 0.00 81 1010.5
20260506043133 61 80 3.5 5.2 0.00 0.00 0.00 80 1010.9
20260506042631 61 203 4.3 5.2 0.00 0.00 0.00 81 1010.9
20260506042132 61 351 2.6 2.6 0.00 0.00 0.00 81 1010.5
20260506041132 61 212 2.6 6.1 0.00 0.00 0.00 81 1010.7
20260506040632 61 66 3.5 5.2 0.00 0.00 0.00 82 1010.7
20260506040131 61 1 1.7 1.7 0.00 0.00 0.00 83 1010.5
20260506035630 62 155 2.6 5.2 0.00 0.00 0.01 83 1010.5
20260506035131 62 14 1.7 2.6 0.00 0.00 0.01 83 1010.5
20260506034630 62 354 0.9 0.9 0.00 0.00 0.01 82 1010.5
20260506034131 62 2 0.9 1.7 0.00 0.00 0.01 83 1010.1
20260506033629 62 345 0.9 0.9 0.00 0.00 0.01 82 1010.5
20260506033128 62 49 2.6 4.3 0.00 0.00 0.01 82 1010.5
20260506032629 62 49 2.6 4.3 0.00 0.00 0.01 82 1010.5
20260506032129 62 239 2.6 4.3 0.00 0.00 0.01 82 1010.5
20260506031628 62 239 2.6 4.3 0.00 0.00 0.01 82 1010.7
20260506031127 0 0.0 0.0 0.00 0.00 0.01 1010.9
20260506030627 0 0.0 0.0 0.00 0.00 0.01 1010.9
20260506030125 0 0.0 0.0 0.00 0.00 0.01 1010.9
20260506025126 0 0.0 0.0 0.00 0.00 0.01 1010.9
20260506024124 0 0.0 0.0 0.00 0.00 0.01 1010.5
20260506023625 0 0.0 0.0 0.00 0.00 0.01 1010.5
20260506023126 0 0.0 0.0 0.00 0.00 0.01 1010.5
20260506022124 0 0.0 0.0 0.00 0.00 0.01 1010.5
20260506021627 0 0.0 0.0 0.00 0.00 0.01 1010.5
20260506021124 0 0.0 0.0 0.00 0.00 0.01 1010.5
20260506020622 0 0.0 0.0 0.00 0.00 0.01 1010.7
20260506020123 0 0.0 0.0 0.00 0.00 0.01
20260506015622 0 0.0 0.0 0.00 0.00 0.01 1010.9
20260506015124 0 0.0 0.0 0.00 0.00 0.01 1010.7
20260506014622 0 0.0 0.0 0.00 0.00 0.01 1010.5
20260506014121 0 0.0 0.0 0.00 0.00 0.01 1010.5
20260506013121 0 0.0 0.0 0.00 0.00 0.01 1010.1
20260506012622 0 0.0 0.0 0.00 0.00 0.01 1010.1
20260506012121 60 340 1.7 1.7 0.00 0.00 0.01 92 1010.3
20260506011621 60 340 1.7 1.7 0.00 0.00 0.01 92 1010.3
20260506010619 60 345 0.9 0.9 0.00 0.00 0.01 95 1010.1
20260506010126 60 0.0 0.0 0.00 0.00 0.01 94 1010.1
20260506005617 60 336 0.9 1.7 0.00 0.00 0.01 93 1009.8
20260506005118 61 7 1.7 1.7 0.00 0.00 0.01 89 1009.8
20260506004618 62 316 0.9 1.7 0.00 0.00 0.01 86 1010.0
20260506004118 64 343 0.0 0.9 0.00 0.00 0.00 80 1010.1
20260506003616 0 0.0 0.0 0.00 0.00 0.00 1009.8
20260506003117 0 0.0 0.0 0.00 0.00 0.00 1010.0
20260506002748 0 0.0 0.0 0.00 0.00 0.00 1010.1
20260506002147 0 0.0 0.0 0.00 0.00 0.00 1010.1
20260506001645 63 0.0 0.0 0.00 0.00 0.00 81 1010.1
20260506001149 64 323 0.0 0.9 0.00 0.00 0.00 80 1009.8
20260506000645 65 0.0 0.0 0.00 0.00 0.00 74 1009.8
20260506000144 65 0.0 0.0 0.00 0.00 0.00 74 1009.8
20260505235809 65 343 0.0 0.9 0.00 0.00 0.00 73 1009.8
20260505231135 65 4 8.7 13.9 0.00 0.00 0.00 75 1009.1
20260505230133 64 339 2.6 2.6 0.00 0.00 0.00 78 1008.7
20260505225633 64 306 1.7 4.3 0.00 0.00 0.00 81 1008.7
20260505225135 64 307 2.6 5.2 0.00 0.00 0.00 81 1008.9
20260505224632 64 326 1.7 2.6 0.00 0.00 0.00 80 1008.7
20260505224232 64 335 4.3 7.0 0.00 0.00 0.00 81 1008.7
20260505223631 65 340 1.7 1.7 0.00 0.00 0.00 81 1008.7
20260505223232 66 320 2.6 4.3 0.00 0.00 0.00 74 1008.4
20260505222631 69 317 8.7 14.8 0.00 0.00 0.00 66 1008.4
20260505222131 69 313 2.6 4.3 0.00 0.00 0.00 63 1008.0
20260505221130 70 335 1.7 2.6 0.00 0.00 0.00 60 1007.5
20260505220630 71 325 0.9 1.7 0.00 0.00 0.00 57 1007.3
20260505220129 73 358 2.6 2.6 0.00 0.00 0.00 54 1007.3
20260505215127 77 318 1.7 2.6 0.00 0.00 0.00 41 1007.2
20260505214629 76 343 1.7 2.6 0.00 0.00 0.00 41 1007.0
20260505214128 76 352 0.9 1.7 0.00 0.00 0.00 41 1007.0
20260505213628 76 319 1.7 4.3 0.00 0.00 0.00 43 1006.8
20260505213126 76 341 0.9 1.7 0.00 0.00 0.00 42 1007.0
20260505212628 77 353 7.0 11.3 0.00 0.00 0.00 42 1007.3
20260505212130 77 322 1.7 4.3 0.00 0.00 0.00 42 1007.0
20260505211627 77 2 1.7 4.3 0.00 0.00 0.00 41 1007.0
20260505211125 77 339 4.3 7.8 0.00 0.00 0.00 40 1007.0
20260505210624 78 228 7.0 9.6 0.00 0.00 0.00 40 1007.0
20260505210125 79 323 2.6 5.2 0.00 0.00 0.00 40 1006.6
20260505205624 79 241 4.3 5.2 0.00 0.00 0.00 40 1006.3
20260505205124 78 44 6.1 9.6 0.00 0.00 0.00 40 1006.3
20260505204623 79 76 3.5 6.1 0.00 0.00 0.00 40 1006.3
20260505204124 79 336 5.2 9.6 0.00 0.00 0.00 40 1006.3
20260505203623 78 320 2.6 4.3 0.00 0.00 0.00 41 1006.1
20260505203122 78 322 3.5 5.2 0.00 0.00 0.00 40 1006.1
20260505202622 78 143 8.7 13.0 0.00 0.00 0.00 40 1006.3
20260505202123 78 258 4.3 6.1 0.00 0.00 0.00 40 1006.3
20260505201622 79 171 12.2 20.9 0.00 0.00 0.00 40 1006.3
20260505201121 79 320 1.7 4.3 0.00 0.00 0.00 40 1005.9
20260505200722 79 301 3.5 6.1 0.00 0.00 0.00 39 1006.3
20260505200123 78 318 2.6 6.1 0.00 0.00 0.00 39 1006.6
20260505195621 79 111 7.0 8.7 0.00 0.00 0.00 39 1006.6
20260505195120 79 323 0.9 1.7 0.00 0.00 0.00 40 1006.6
20260505194619 78 7 5.2 9.6 0.00 0.00 0.00 39 1006.8
20260505194120 77 350 0.9 1.7 0.00 0.00 0.00 39 1006.8
20260505193619 78 277 4.3 14.8 0.00 0.00 0.00 39 1006.6
20260505192618 78 144 4.3 8.7 0.00 0.00 0.00 39 1006.8
20260505192120 79 170 4.3 7.8 0.00 0.00 0.00 37 1007.0
20260505191122 79 312 5.2 8.7 0.00 0.00 0.00 37 1007.0
20260505190117 79 328 7.0 14.8 0.00 0.00 0.00 38 1006.6
20260505185618 80 177 8.7 13.9 0.00 0.00 0.00 37 1006.8
20260505185116 80 179 5.2 9.6 0.00 0.00 0.00 38 1007.0
20260505184647 80 329 1.7 4.3 0.00 0.00 0.00 37 1007.3
20260505184146 80 29 6.1 9.6 0.00 0.00 0.00 38 1007.2
20260505183646 79 321 3.5 7.0 0.00 0.00 0.00 37 1007.0
20260505183144 80 167 5.2 7.8 0.00 0.00 0.00 37 1007.3
20260505182643 81 272 6.1 11.3 0.00 0.00 0.00 36 1007.3
20260505182245 80 161 5.2 9.6 0.00 0.00 0.00 41 1007.2
20260505181644 80 290 9.6 17.4 0.00 0.00 0.00 38 1007.0
20260505181144 80 9 3.5 6.1 0.00 0.00 0.00 37 1007.3
20260505180644 79 300 6.1 11.3 0.00 0.00 0.00 38 1007.7
20260505175643 77 139 5.2 7.8 0.00 0.00 0.00 46 1007.7
20260505175142 78 216 6.1 8.7 0.00 0.00 0.00 43 1007.7
20260505174641 78 159 5.2 8.7 0.00 0.00 0.00 39 1007.7
20260505174142 78 287 4.3 7.8 0.00 0.00 0.00 37 1007.7
20260505173641 79 277 4.3 7.0 0.00 0.00 0.00 38 1008.2
20260505173141 79 20 7.8 17.4 0.00 0.00 0.00 37 1008.0
20260505172640 79 351 7.8 9.6 0.00 0.00 0.00 38 1008.0
20260505172139 79 162 8.7 11.3 0.00 0.00 0.00 39 1008.0
20260505171640 79 282 6.1 13.9 0.00 0.00 0.00 40 1008.0
20260505171139 78 352 7.0 13.0 0.00 0.00 0.00 38 1008.0
20260505160636 75 313 2.6 4.3 0.00 0.00 0.00 50 1009.1
20260505160134 74 147 9.6 12.2 0.00 0.00 0.00 51 1008.7
20260505153132 72 161 4.3 7.0 0.00 0.00 0.00 56 1009.8
20260505152632 72 187 7.0 8.7 0.00 0.00 0.00 55 1009.8